Date String (YYYY-MM-DD hh:mm:ss) UTC,Instrument flags,absolute air pressure of the measurement (hPa),sample flow rate (lpm),inlet stack bypass flow (lpm),air temperature of the measurement (°C),ambient temperature measured by the external sensor (°C),aerosol sample conditioner tube jacket temperature (°C),OPC LED temperature (°C),internal box temperature (°C),relative humidity of the measurement (%),span deviation,mass concentration of particles derived from Lorenz-Mie calculation of OPC scattering (μg/m³),mass concentration of particles derived from Lorenz-Mie calculation of OPC scattering (μg/m³),mass concentration of particles derived from Lorenz-Mie calculation of OPC scattering (μg/m³)
DateTimeUTC,F1_M11,P_M11,Q1_M11,Q2_M11,T1_M11,T2_M11,T3_M11,T4_M11,T5_M11,U1_M11,ZSPAN_M11,X0_M11,X2_M11,X1_M11
2024-04-08 07:00:00,SystemResetWarning,0824.0,5.00,000.00,018.3,017.6,000.0,026.8,020.0,013.4,0000.0,0002.99,0001.62,0001.10
2024-04-08 07:01:00,SystemResetWarning,0823.9,5.00,000.00,018.3,017.6,000.0,026.8,020.0,013.4,0000.0,0002.89,0001.60,0001.08
2024-04-08 07:02:00,SystemResetWarning,0823.8,5.00,000.00,018.3,017.6,000.0,026.8,020.0,013.3,0000.0,0002.89,0001.61,0001.08
2024-04-08 07:03:00,SystemResetWarning,0823.8,5.00,000.00,018.3,017.6,000.0,026.8,020.0,013.0,0000.0,0002.80,0001.62,0001.09
2024-04-08 07:04:00,SystemResetWarning,0823.8,5.00,000.00,018.3,017.6,000.0,026.8,020.0,012.8,0000.0,0002.80,0001.62,0001.09
2024-04-08 07:05:00,SystemResetWarning,0823.8,5.00,000.00,018.3,017.6,000.0,026.9,020.0,012.9,0000.0,0002.79,0001.62,0001.10
2024-04-08 07:06:00,SystemResetWarning,0823.9,5.00,000.00,018.3,017.6,000.0,026.9,020.0,012.5,0000.0,0002.85,0001.64,0001.11
2024-04-08 07:07:00,SystemResetWarning,0824.0,5.00,000.00,018.3,017.6,000.0,026.9,020.0,012.9,0000.0,0002.91,0001.66,0001.12
2024-04-08 07:08:00,SystemResetWarning,0824.0,4.99,000.00,018.3,017.5,000.0,026.9,020.0,013.3,0000.0,0003.06,0001.67,0001.13
2024-04-08 07:09:00,SystemResetWarning,0823.9,5.00,000.00,018.3,017.5,000.0,026.9,020.0,013.4,0000.0,0003.04,0001.65,0001.12
2024-04-08 07:10:00,SystemResetWarning,0824.0,5.00,000.00,018.3,017.5,000.0,026.9,020.0,013.2,0000.0,0003.19,0001.69,0001.13
2024-04-08 07:11:00,SystemResetWarning,0824.0,5.01,000.00,018.3,017.5,000.0,026.9,020.0,012.8,0000.0,0003.41,0001.76,0001.15
2024-04-08 07:12:00,SystemResetWarning,0823.9,5.01,000.00,018.3,017.5,000.0,026.9,020.0,012.9,0000.0,0003.42,0001.77,0001.19
2024-04-08 07:13:00,SystemResetWarning,0824.0,5.00,000.00,018.2,017.5,000.0,026.9,020.0,012.9,0000.0,0003.50,0001.81,0001.20
2024-04-08 07:14:00,SystemResetWarning,0824.0,5.00,000.00,018.3,017.5,000.0,026.9,020.0,012.7,0000.0,0003.62,0001.85,0001.23
2024-04-08 07:15:00,SystemResetWarning,0824.0,5.00,000.00,018.2,017.5,000.0,026.9,020.0,012.6,0000.0,0003.64,0001.87,0001.26
2024-04-08 07:16:00,SystemResetWarning,0824.0,5.00,000.00,018.2,017.5,000.0,026.9,020.0,012.7,0000.0,0003.78,0001.93,0001.30
2024-04-08 07:17:00,SystemResetWarning,0824.0,5.00,000.00,018.2,017.5,000.0,026.9,020.0,012.9,0000.0,0003.78,0001.92,0001.32
2024-04-08 07:18:00,SystemResetWarning,0823.9,4.99,000.00,018.2,017.5,000.0,026.9,020.0,013.0,0000.0,0003.87,0001.98,0001.33
2024-04-08 07:19:00,SystemResetWarning,0823.8,4.99,000.00,018.2,017.5,000.0,026.9,020.0,013.0,0000.0,0003.72,0001.99,0001.34
2024-04-08 07:20:00,SystemResetWarning,0823.8,5.01,000.00,018.2,017.5,000.0,026.9,020.0,013.0,0000.0,0003.85,0002.05,0001.36
2024-04-08 07:21:00,SystemResetWarning,0823.9,5.01,000.00,018.2,017.5,000.0,026.9,020.0,013.1,0000.0,0004.25,0002.07,0001.37
2024-04-08 07:22:00,SystemResetWarning,0823.9,5.00,000.00,018.2,017.5,000.0,026.9,020.0,013.1,0000.0,0004.21,0002.04,0001.37
2024-04-08 07:23:00,SystemResetWarning,0823.8,5.00,000.00,018.2,017.4,000.0,026.9,020.0,013.0,0000.0,0004.54,0002.04,0001.33
2024-04-08 07:24:00,SystemResetWarning,0823.8,5.00,000.00,018.2,017.4,000.0,026.9,020.0,012.9,0000.0,0004.43,0002.02,0001.33
2024-04-08 07:25:00,SystemResetWarning,0823.9,5.00,000.00,018.2,017.4,000.0,026.9,020.0,012.9,0000.0,0004.28,0002.01,0001.32
2024-04-08 07:26:00,SystemResetWarning,0823.9,5.00,000.00,018.2,017.4,000.0,026.9,020.0,012.8,0000.0,0004.38,0002.01,0001.31
2024-04-08 07:27:00,SystemResetWarning,0823.8,5.00,000.00,018.2,017.3,000.0,026.9,020.0,012.9,0000.0,0004.54,0001.99,0001.29
2024-04-08 07:28:00,SystemResetWarning,0823.8,5.00,000.00,018.2,017.4,000.0,026.9,020.0,013.1,0000.0,0004.52,0002.01,0001.27
2024-04-08 07:29:00,SystemResetWarning,0823.8,5.00,000.00,018.2,017.4,000.0,026.9,020.0,013.2,0000.0,0004.45,0001.96,0001.24
2024-04-08 07:30:00,SystemResetWarning,0823.8,5.00,000.00,018.2,017.4,000.0,026.9,020.0,013.1,0000.0,0004.42,0001.93,0001.22
2024-04-08 07:31:00,SystemResetWarning,0823.8,5.00,000.00,018.2,017.4,000.0,026.9,020.0,013.1,0000.0,0004.29,0001.88,0001.20
2024-04-08 07:32:00,SystemResetWarning,0823.8,5.00,000.00,018.2,017.4,000.0,026.9,020.0,013.1,0000.0,0004.11,0001.87,0001.19
2024-04-08 07:33:00,SystemResetWarning,0823.8,5.00,000.00,018.2,017.4,000.0,026.9,020.0,013.1,0000.0,0004.58,0001.84,0001.18
2024-04-08 07:34:00,SystemResetWarning,0823.8,5.00,000.00,018.2,017.4,000.0,026.9,020.0,013.0,0000.0,0004.18,0001.81,0001.18
2024-04-08 07:35:00,SystemResetWarning,0823.8,5.00,000.00,018.2,017.4,000.0,026.9,020.0,013.1,0000.0,0004.20,0001.81,0001.18
2024-04-08 07:36:00,SystemResetWarning,0823.8,5.00,000.00,018.2,017.4,000.0,026.9,020.0,013.2,0000.0,0004.24,0001.82,0001.18
2024-04-08 07:37:00,SystemResetWarning,0823.8,5.00,000.00,018.2,017.3,000.0,026.9,020.0,013.2,0000.0,0004.16,0001.83,0001.16
2024-04-08 07:38:00,SystemResetWarning,0823.8,5.00,000.00,018.2,017.6,000.0,027.0,020.1,013.2,0000.0,0004.08,0001.87,0001.15
2024-04-08 07:39:00,SystemResetWarning,0823.8,5.00,000.00,018.4,018.4,000.0,027.1,020.6,013.1,0000.0,0004.18,0001.89,0001.16
2024-04-08 07:40:00,SystemResetWarning,0823.8,4.99,000.00,018.7,019.0,000.0,027.1,021.0,012.9,0000.0,0004.23,0001.92,0001.18
2024-04-08 07:41:00,SystemResetWarning,0823.8,4.99,000.00,018.7,018.9,000.0,027.0,020.8,012.9,0000.0,0004.40,0001.96,0001.20
2024-04-08 07:42:00,SystemResetWarning,0823.8,5.00,000.00,018.7,018.8,000.0,027.0,020.7,012.9,0000.0,0004.35,0001.93,0001.20
2024-04-08 07:43:00,SystemResetWarning,0823.8,5.00,000.00,018.7,018.6,000.0,027.0,020.6,012.9,0000.0,0004.56,0001.93,0001.20
2024-04-08 07:44:00,SystemResetWarning,0823.8,5.00,000.00,018.7,018.5,000.0,027.1,020.5,013.0,0000.0,0004.14,0001.93,0001.21
2024-04-08 07:45:00,SystemResetWarning,0823.8,5.00,000.00,018.7,018.3,000.0,027.1,020.4,013.1,0000.0,0004.17,0001.94,0001.21
2024-04-08 07:46:00,SystemResetWarning,0823.8,5.00,000.00,018.7,018.2,000.0,027.1,020.4,013.3,0000.0,0004.24,0001.96,0001.21
2024-04-08 07:47:00,SystemResetWarning,0823.8,5.00,000.00,018.6,018.2,000.0,027.1,020.4,013.4,0000.0,0004.28,0001.97,0001.22
2024-04-08 07:48:00,SystemResetWarning,0823.7,5.00,000.00,018.6,018.1,000.0,027.1,020.3,013.4,0000.0,0004.36,0001.98,0001.21
2024-04-08 07:49:00,SystemResetWarning,0823.7,5.00,000.00,018.6,018.0,000.0,027.1,020.3,013.4,0000.0,0004.21,0001.94,0001.20
2024-04-08 07:50:00,SystemResetWarning,0823.7,5.00,000.00,018.6,018.0,000.0,027.1,020.3,013.4,0000.0,0004.07,0001.90,0001.20
2024-04-08 07:51:00,SystemResetWarning,0823.7,5.00,000.00,018.6,017.9,000.0,027.1,020.2,013.3,0000.0,0004.13,0001.94,0001.21
2024-04-08 07:52:00,SystemResetWarning,0823.7,5.01,000.00,018.5,017.9,000.0,027.1,020.2,013.3,0000.0,0004.10,0001.92,0001.21
2024-04-08 07:53:00,SystemResetWarning,0823.7,5.00,000.00,018.5,017.9,000.0,027.1,020.2,013.4,0000.0,0004.17,0001.95,0001.21
2024-04-08 07:54:00,SystemResetWarning,0823.7,5.00,000.00,018.5,017.8,000.0,027.1,020.2,013.4,0000.0,0003.95,0001.96,0001.21
2024-04-08 07:55:00,SystemResetWarning,0823.6,5.00,000.00,018.5,017.8,000.0,027.0,020.1,013.3,0000.0,0003.54,0001.96,0001.19
2024-04-08 07:56:00,SystemResetWarning,0823.6,5.00,000.00,018.5,017.8,000.0,027.0,020.1,013.2,0000.0,0003.50,0002.00,0001.19
2024-04-08 07:57:00,SystemResetWarning,0823.6,5.01,000.00,018.4,017.8,000.0,027.0,020.1,013.0,0000.0,0003.63,0002.01,0001.18
2024-04-08 07:58:00,SystemResetWarning,0823.6,5.00,000.00,018.4,017.7,000.0,027.0,020.1,013.0,0000.0,0003.62,0001.96,0001.15
2024-04-08 07:59:00,SystemResetWarning,0823.6,5.00,000.00,018.4,017.7,000.0,027.0,020.1,012.8,0000.0,0004.14,0001.93,0001.14
